星链-4330 (STARLINK-4330 )

导读

STARLINK-4330是美国太空探索技术公司(SpaceX)于2022年7月11日发射的星链(Starlink)卫星,属于星链互联网星座的组成部分。星链项目旨在为全球偏远及传统网络覆盖不足地区提供高速卫星互联网服务,截至2024年6月,整个星链网络已拥有超6000颗在轨卫星,占全球现役卫星总数一半以上,并已拓展至蜂窝通信、军事通信等领域。

Basic Information
目录编号:
53080
目录名称:
STARLINK-4330
国际标识:
2022-077AP
轨道中心:
EARTH
卫星名称:
星链-4330
卫星全名:
星链-4330 (STARLINK-4330 )
卫星状态:
在轨 (已飞行1517 天)
发射日期:
2022-07-11 UTC
国别 :
美国 (US)
星等 :
--
Orbit Information
数据来源 国际轨道数据
星历时间: 2026-09-06T00:00:02+0800
4小时前
查看轨道信息
半长轴: 6867.699km
偏心率: 0.0001598
轨道倾角: 97.286°
近地点辐角 86.307°
升交点赤经 64.639°
平近点角 199.587°
近地点: 488.464km
远地点: 490.66km
周期: 94.401分钟
每日圈数: 15.254078
Detailed Information
固有亮度:
5
最大亮度:
2.5
卫星平台:
Starlink v1.5
覆盖范围:
全球
运营商:
太空探索技术公司
运营商所在国:
美国
制造商(研发单位):
太空探索技术公司
制造商所在国:
美国
使用方式:
暂无
Satellite Introduction
星链(Starlink)计划是由太空探索技术公司(SpaceX)提出的一个巨型低轨卫星互联网星座项目,计划在2019年至2024年间在太空搭建由约1.2万颗卫星组成的“星链”网络,其中1584颗将部署在地球上空550千米处的近地轨道,并从2020年开始工作。该卫星仍在工作。
2D Orbit Map
3D Orbit Map
Orbit Altitude Analysis Chart
Orbit Inclination Analysis Chart
Orbit Comprehensive Analysis Chart
View Comprehensive Chart
Conjunction Data List
Event ID Objects TCA Miss Dist (km) Collision Risk Probability Collision Risk Index (CRI) Action
CDM_260902-130303-756905-308021
2026-09-02T
13:03:45+0000
0.632 km
远距离
5.678436E-5 中风险 0.7
CDM_260830-162104-378605-308021
ITASAT (43786)
2026-08-30T
16:21:05+0000
1.165 km
极远距离
1.487625E-5 中风险 0.58
CDM_260906-215104-697905-308021
2026-09-06T
21:51:32+0000
2.431 km
极远距离
1.827783E-6 低风险 0.4
CDM_260903-071005-308006-063021
2026-09-03T
07:10:59+0000
2.811 km
极远距离
1.374425E-6 低风险 0.38